FW8967 Weather Reports


Display with metric or nautical units.
time (UTC)temp
F
wind
direction
speed
MPH
gust
MPH
rain 1hr
in
rain 24hr
in
rain mn
in
humidity
%
barometer
mb
20260504044547 48 0 0.0 0.0 0.00 0.00 0.00 61 1015.5
20260504043048 49 0 0.0 0.0 0.00 0.00 0.00 59 1015.3
20260504041549 51 0 0.0 1.0 0.00 0.00 0.00 53 1015.4
20260504040107 49 0 0.0 1.0 0.00 0.00 0.00 53 1015.4
20260504034550 46 0 0.0 0.0 0.00 0.00 0.00 59 1015.6
20260504033050 46 0 0.0 0.0 0.00 0.00 0.00 61 1015.6
20260504031600 45 0 0.0 0.0 0.00 0.00 0.00 64 1015.5
20260504030048 44 0 0.0 0.0 0.00 0.00 0.00 68 1015.5
20260504024551 44 0 0.0 0.0 0.00 0.00 0.00 68 1015.6
20260504023052 45 0 0.0 0.0 0.00 0.00 0.00 66 1015.8
20260504021550 46 0 0.0 0.0 0.00 0.00 0.00 64 1015.5
20260504014547 46 0 0.0 0.0 0.00 0.00 0.00 62 1015.3
20260504013048 46 0 0.0 0.0 0.00 0.00 0.00 61 1014.9
20260504011549 47 0 0.0 0.0 0.00 0.00 0.00 60 1014.7
20260504010053 48 0 0.0 0.0 0.00 0.00 0.00 58 1014.7
20260504004553 49 0 0.0 0.0 0.00 0.00 0.00 58 1014.7
20260504003053 50 0 0.0 0.0 0.00 0.00 0.00 54 1014.6
20260504001552 52 0 0.0 0.0 0.00 0.00 0.00 49 1014.5
20260504000050 54 0 0.0 0.0 0.00 0.00 0.00 47 1014.5
20260503234615 57 0 0.0 0.0 0.00 0.00 0.00 42 1014.4
20260503233053 60 0 0.0 0.0 0.00 0.00 0.00 32 1014.3
20260503231548 63 0 0.0 5.0 0.00 0.00 0.00 30 1014.2
20260503230047 65 0 0.0 4.0 0.00 0.00 0.00 28 1014.0
20260503224550 64 212 1.0 5.0 0.00 0.00 0.00 24 1014.2
20260503223050 65 264 1.0 4.0 0.00 0.00 0.00 24 1014.4
20260503221601 65 289 1.0 8.0 0.00 0.00 0.00 25 1014.5
20260503220051 65 245 1.0 6.0 0.00 0.00 0.00 24 1014.6
20260503214550 64 117 2.0 5.0 0.00 0.00 0.00 26 1014.5
20260503213049 64 226 0.0 7.0 0.00 0.00 0.00 24 1014.7
20260503211546 64 251 1.0 6.0 0.00 0.00 0.00 26 1014.7
20260503210050 64 275 1.0 7.0 0.00 0.00 0.00 24 1014.7
20260503204555 64 285 2.0 6.0 0.00 0.00 0.00 24 1014.7
20260503203056 63 207 3.0 11.0 0.00 0.00 0.00 27 1015.1
20260503201553 63 295 1.0 9.0 0.00 0.00 0.00 27 1015.3
20260503200054 62 255 4.0 8.0 0.00 0.00 0.00 27 1015.5
20260503194557 62 204 3.0 9.0 0.00 0.00 0.00 28 1016.0
20260503193049 61 30 2.0 11.0 0.00 0.00 0.00 29 1016.0
20260503191552 61 4 1.0 8.0 0.00 0.00 0.00 28 1016.0
20260503190048 60 79 2.0 9.0 0.00 0.00 0.00 30 1016.4
20260503184557 61 268 3.0 6.0 0.00 0.00 0.00 31 1016.7
20260503183053 59 239 1.0 7.0 0.00 0.00 0.00 34 1016.8
20260503181547 59 258 2.0 8.0 0.00 0.00 0.00 30 1017.2
20260503180100 58 250 2.0 8.0 0.00 0.00 0.00 30 1017.3
20260503174554 57 243 4.0 11.0 0.00 0.00 0.00 31 1017.3
20260503173052 58 226 1.0 4.0 0.00 0.00 0.00 34 1017.4
20260503171551 56 274 3.0 9.0 0.00 0.00 0.00 37 1017.9
20260503110108 39 0 0.0 3.0 0.00 0.00 0.00 64 1017.8
20260503081549 37 207 0.0 1.0 0.00 0.00 0.00 74 1015.5